Regional Weather Roundup
Issued by NWS

Home | Current Version | Previous Version | Text Only | Print | Product List | Glossary On
Versions: 1 2 3 4 5 6 7 8 9 10 11 12 13 14 15 16 17 18 19 20 21 22 23 24 25 26 27
000
ASUS44 KBMX 271810
RWRAL

ALABAMA REGIONAL WEATHER ROUNDUP
NATIONAL WEATHER SERVICE BIRMINGHAM AL
100 PM CDT TUE SEP 27 2016

NOTE: "FAIR" INDICATES FEW OR NO CLOUDS BELOW 12,000 FEET
WITH NO SIGNIFICANT WEATHER AND/OR OBSTRUCTIONS TO VISIBILITY.

THE REMARK "TC" DENOTES TEMPERATURE IN DEGREES CELSIUS.

ALZ001>011-014-016>018-020-271900-
NORTH ALABAMA

CITY           SKY/WX    TMP DP  RH WIND       PRES   REMARKS
MUSCLE SHOALS  SUNNY     81  41  24 NW6       29.99F
6HR MIN TEMP:  63; 6HR MAX TEMP:  81;

HUNTSVILLE     MOSUNNY   84  55  36 N9        29.96F
6HR MIN TEMP:  64; 6HR MAX TEMP:  84;

DECATUR        SUNNY     83  51  33 VRB6      29.97F
6HR MIN TEMP:  61; 6HR MAX TEMP:  83;

HALEYVILLE     FAIR      80  54  40 VRB6      30.00F
6HR MIN TEMP:  60; 6HR MAX TEMP:  80;

GADSDEN        MOSUNNY   83  68  60 CALM      29.95F
6HR MIN TEMP:  67; 6HR MAX TEMP:  84;

$$

ALZ012-013-022-023-030>036-040>044-271900-
WEST CENTRAL ALABAMA

CITY           SKY/WX    TMP DP  RH WIND       PRES   REMARKS
TUSCALOOSA     MOSUNNY   84  66  54 MISG      29.95F
6HR MIN TEMP:  66; 6HR MAX TEMP:  84;

$$

ALZ015-024>027-033>036-040>044-271900-
CENTRAL ALABAMA

CITY           SKY/WX    TMP DP  RH WIND       PRES   REMARKS
BIRMINGHAM     PTSUNNY   83  66  56 VRB5      29.97F
6HR MIN TEMP:  66; 6HR MAX TEMP:  84;

MONTGOMERY     MOSUNNY   89  66  46 S5        29.93F HX  91
6HR MIN TEMP:  71; 6HR MAX TEMP:  90;

SHELBY CO ARPT MOSUNNY   85  66  53 NW5       29.94F
6HR MIN TEMP:  68; 6HR MAX TEMP:  86;

MAXWELL AFB    MOSUNNY   89  69  51 VRB5      29.93F HX  92
6HR MIN TEMP:  69; 6HR MAX TEMP:  89;

GREENVILLE     NOT AVBL
$$

ALZ019-021-028-029-037-038-045>048-271900-
EAST CENTRAL ALABAMA

CITY           SKY/WX    TMP DP  RH WIND       PRES   REMARKS
ANNISTON       MOSUNNY   87  64  46 SW7       29.94F
6HR MIN TEMP:  66; 6HR MAX TEMP:  88;

ALEXANDER CITY MOSUNNY   90  76  64 SW3       29.95F HX 102
6HR MIN TEMP:  70; 6HR MAX TEMP:  90;

AUBURN         CLOUDY    86  68  54 S7        29.96F
6HR MIN TEMP:  69; 6HR MAX TEMP:  86;

$$

ALZ051>064-271900-
SOUTHWEST ALABAMA

CITY           SKY/WX    TMP DP  RH WIND       PRES   REMARKS
MOBILE         PTSUNNY   86  73  65 VRB3      29.95F HX  93
6HR MIN TEMP:  68; 6HR MAX TEMP:  86;

BROOKLEY FIELD MOSUNNY   85  75  72 SE8       29.95F HX  93
6HR MIN TEMP:  71; 6HR MAX TEMP:  85;

EVERGREEN      SUNNY     85  71  63 CALM      29.94F HX  90
6HR MIN TEMP:  68; 6HR MAX TEMP:  87;

$$

ALZ049-050-065>069-271900-
SOUTHEAST ALABAMA

CITY           SKY/WX    TMP DP  RH WIND       PRES   REMARKS
DOTHAN         PTSUNNY   88  69  53 VRB3      29.97F HX  92
6HR MIN TEMP:  67; 6HR MAX TEMP:  89;

OZARK          MOSUNNY   87  70  56 VRB3      29.93F HX  92
6HR MIN TEMP:  68; 6HR MAX TEMP:  87;

TROY           MOSUNNY   85  69  58 CALM      29.94F
6HR MIN TEMP:  65; 6HR MAX TEMP:  86;

EUFAULA        NOT AVBL
$$




USA.gov is the U.S. government's official web portal to all federal, state and local government web resources and services.